Weather in Tally

Russia / Orenburg Oblast     53°08′19″N   53°03′45″E
temp.,
°C
wind,
m/s
gust,
m/s
humid.,
%
clouds,
%
prec.,
mm/h
press.,
hPa
HPBL,
m
28 february, sun
sun2823:000sw5898100 1.8 998439
02:000sw4798100 1.1 998373
05:00−2nw4698100 2.2 998240
08:00−10nw489697 0.4 999181
11:00−11nw489697 0.4 1001222
14:00−8nw5894100 0.1 1003347
17:00−9nw6893100 0.1 1006433
20:00−12nw4995100 0.1 1008290
1 march, mon
mon123:00−14nw3796100 0.1 1011185
02:00−15nw369691 0.1 1013156
05:00−16nw369786 0.1 1015142
08:00−17nw369784 0.1 1016148
11:00−16nw359683 0.1 1019195
14:00−15nw349488 0.0 1020253
17:00−15nw369589 0.0 1021315
20:00−19wnw33100100 0.0 102125
2 march, tue
tue223:00−22w2210086 0.0 102220
02:00−22wsw339955 0.0 102121
05:00−22ssw3410028 0.0 101971
08:00−20s5910085 0.0 1017189
11:00−16ssw8129693 0.1 1014299
14:00−12ssw91493100 0.2 1011436
17:00−9ssw91493100 0.8 1008626
20:00−6ssw81593100 0.6 1005703
3 march, wed
wed323:00−4ssw71394100 1.1 1002567
02:00−4ssw61295100 0.6 1000469
05:00−3sw599699 1.3 999317
08:00−4w489788 0.1 999238
11:00−4w589594 0.3 1000332
14:00−2wnw5794100 0.2 1001574
17:00−2nw5791100 0.3 1002637
20:00−4nw5893100 0.1 1003457
4 march, thu
thu423:00−4nw4996100 0.2 1006457
02:00−7wnw369789 0.1 1006135
05:00−8nw489690 0.4 1008247
08:00−9nw499693 0.2 1010235
11:00−11wnw489591 0.2 1012263
14:00−8w479482 0.0 1013338
17:00−7wsw499269 0.0 1014419
20:00−10sw7149482 0.0 1013354